User: anonymous
Location: Unspecified
(0.0000°N, 0.0000°E)
Time: 18:10:47
(UTC+02:00)
Language:

Timation 2 Rocket - Orbit

View from above orbital plane
View from above orbital plane
View from above satellite
View from above satellite

Ground track
Ground track

The orbit data is extracted from the following two-line orbital elements,

1 04159U 69082AB  14242.05682429  .00000003  00000-0  55713-4 0  6729
2 04159 069.9619 100.4796 0118099 281.7086 077.0775 13.72243139247841
Epoch (UTC): 30 August 2014 01:21:49
Eccentricity: 0.0118099
inclination: 69.9619°
perigee height: 904 km
apogee height: 1078 km
right ascension of ascending node: 100.4796°
argument of perigee: 281.7086°
revolutions per day: 13.72243139
mean anomaly at epoch: 77.0775°
orbit number at epoch: 24784

The dashed part of the orbit path shows where the satellite is in the earth's shadow,  

DLR